When you browse on this site, cookies collect data to enhance your experience and personalize the content and advertising you see.
Visit our Privacy Policy to learn more. By continuing to use the site, you agree to this use of cookies and data.
  • In United Kingdom
  • List of Countries
  • For 7 days
  • Water Temperature
  • Satellite Maps
  • Weather Map
  • Weather Widgets
  • user-avatar
    Login

    Hourly Weather Polotsk

    Today, 25 April, Thursday

    Time Temperature Precipitation Wind Pressure Humidity
    00:00 +12°C° 0 mm 2 mps 755 mmHg 60%
    01:00 +12°C° 0 mm 2 mps 755 mmHg 60%
    02:00 +10°C° 0 mm 2 mps 755 mmHg 60%
    03:00 +10°C° 0 mm 2 mps 755 mmHg 61%
    04:00 +9°C° 0 mm 2 mps 755 mmHg 63%
    05:00 +9°C° 0 mm 2 mps 755 mmHg 65%
    06:00 +12°C° 0 mm 2 mps 755 mmHg 61%
    07:00 +14°C° 0 mm 2 mps 755 mmHg 57%
    08:00 +16°C° 0 mm 2 mps 755 mmHg 54%
    09:00 +17°C° 0 mm 3 mps 754 mmHg 47%
    10:00 +19°C° 0 mm 4 mps 754 mmHg 41%
    11:00 +21°C° 0 mm 5 mps 754 mmHg 35%
    12:00 +21°C° 0 mm 5 mps 754 mmHg 34%
    13:00 +21°C° 0 mm 5 mps 754 mmHg 33%
    14:00 +22°C° 0 mm 5 mps 753 mmHg 31%
    15:00 +22°C° 0 mm 4 mps 753 mmHg 33%
    16:00 +21°C° 0 mm 3 mps 753 mmHg 34%
    17:00 +21°C° 0 mm 3 mps 752 mmHg 36%
    18:00 +19°C° 0 mm 2 mps 752 mmHg 40%
    19:00 +17°C° 0 mm 2 mps 752 mmHg 45%
    20:00 +15°C° 0 mm 2 mps 752 mmHg 50%
    21:00 +14°C° 0 mm 2 mps 752 mmHg 51%
    22:00 +13°C° 0 mm 2 mps 752 mmHg 53%
    23:00 +13°C° 0 mm 2 mps 752 mmHg 54%

    Tomorrow, 26 April, Friday

    Time Temperature Precipitation Wind Pressure Humidity
    00:00 +12°C° 0 mm 2 mps 752 mmHg 56%
    01:00 +12°C° 0 mm 2 mps 752 mmHg 57%
    02:00 +10°C° 0 mm 2 mps 752 mmHg 59%
    03:00 +10°C° 0 mm 2 mps 751 mmHg 62%
    04:00 +9°C° 0 mm 2 mps 751 mmHg 65%
    05:00 +9°C° 0 mm 2 mps 751 mmHg 68%
    06:00 +12°C° 0 mm 2 mps 751 mmHg 65%
    07:00 +13°C° 0 mm 3 mps 751 mmHg 62%
    08:00 +14°C° 0 mm 3 mps 751 mmHg 58%
    09:00 +17°C° 0 mm 3 mps 750 mmHg 54%
    10:00 +19°C° 0 mm 4 mps 750 mmHg 50%
    11:00 +20°C° 0 mm 4 mps 750 mmHg 46%
    12:00 +21°C° 0 mm 4 mps 750 mmHg 45%
    13:00 +22°C° 0 mm 4 mps 749 mmHg 44%
    14:00 +22°C° 0 mm 4 mps 749 mmHg 42%
    15:00 +22°C° 0 mm 3 mps 748 mmHg 43%
    16:00 +22°C° 0 mm 3 mps 748 mmHg 44%
    17:00 +22°C° 0 mm 3 mps 747 mmHg 46%
    18:00 +20°C° 0 mm 3 mps 747 mmHg 53%
    19:00 +18°C° 0 mm 3 mps 747 mmHg 60%
    20:00 +16°C° 0 mm 3 mps 747 mmHg 67%
    21:00 +16°C° 0 mm 3 mps 747 mmHg 67%
    22:00 +14°C° 0 mm 3 mps 746 mmHg 67%
    23:00 +13°C° 0 mm 3 mps 746 mmHg 67%

    Day after tomorrow, 27 April, Saturday

    Time Temperature Precipitation Wind Pressure Humidity
    00:00 +13°C° 0 mm 3 mps 746 mmHg 67%
    01:00 +12°C° 0 mm 3 mps 745 mmHg 66%
    02:00 +12°C° 0 mm 3 mps 745 mmHg 65%
    03:00 +11°C° 0.1 mm 3 mps 745 mmHg 69%
    04:00 +11°C° 0.1 mm 3 mps 744 mmHg 72%
    05:00 +11°C° 0.1 mm 3 mps 744 mmHg 75%
    06:00 +12°C° 1 mm 3 mps 744 mmHg 76%
    07:00 +13°C° 1 mm 3 mps 744 mmHg 77%
    08:00 +14°C° 1 mm 3 mps 744 mmHg 78%
    09:00 +17°C° 0.1 mm 3 mps 743 mmHg 73%
    10:00 +19°C° 0.1 mm 3 mps 743 mmHg 68%
    11:00 +21°C° 0.1 mm 4 mps 743 mmHg 63%
    12:00 +21°C° 1.4 mm 3 mps 743 mmHg 62%
    13:00 +22°C° 1.4 mm 3 mps 742 mmHg 62%
    14:00 +22°C° 1.4 mm 3 mps 742 mmHg 61%
    15:00 +22°C° 1.2 mm 3 mps 742 mmHg 63%
    16:00 +23°C° 1.2 mm 2 mps 741 mmHg 65%
    17:00 +23°C° 1.2 mm 2 mps 741 mmHg 67%
    18:00 +20°C° 0.2 mm 2 mps 741 mmHg 73%
    19:00 +19°C° 0.2 mm 1 mps 741 mmHg 78%
    20:00 +18°C° 0.2 mm 1 mps 741 mmHg 84%
    21:00 +16°C° 0 mm 1 mps 741 mmHg 86%
    22:00 +16°C° 0 mm 1 mps 741 mmHg 88%
    23:00 +15°C° 0 mm 1 mps 741 mmHg 89%

    28 April, Sunday

    Time Temperature Precipitation Wind Pressure Humidity
    00:00 +15°C° 0 mm 1 mps 741 mmHg 91%
    01:00 +14°C° 0 mm 2 mps 741 mmHg 93%
    02:00 +14°C° 0 mm 2 mps 741 mmHg 95%
    03:00 +12°C° 0 mm 3 mps 742 mmHg 95%
    04:00 +12°C° 0 mm 3 mps 742 mmHg 95%
    05:00 +12°C° 0 mm 4 mps 743 mmHg 95%
    06:00 +12°C° 0 mm 4 mps 743 mmHg 92%
    07:00 +13°C° 0 mm 5 mps 744 mmHg 88%
    08:00 +13°C° 0 mm 5 mps 744 mmHg 84%
    09:00 +13°C° 0 mm 5 mps 745 mmHg 83%
    10:00 +13°C° 0 mm 6 mps 746 mmHg 81%
    11:00 +13°C° 0 mm 6 mps 746 mmHg 80%
    12:00 +11°C° 0 mm 6 mps 747 mmHg 78%
    13:00 +11°C° 0 mm 6 mps 747 mmHg 77%
    14:00 +11°C° 0 mm 6 mps 748 mmHg 75%
    15:00 +12°C° 0 mm 5 mps 748 mmHg 71%
    16:00 +12°C° 0 mm 5 mps 748 mmHg 67%
    17:00 +13°C° 0 mm 5 mps 749 mmHg 63%
    18:00 +12°C° 0 mm 4 mps 749 mmHg 65%
    19:00 +10°C° 0 mm 4 mps 750 mmHg 67%
    20:00 +9°C° 0 mm 3 mps 750 mmHg 69%
    21:00 +9°C° 0 mm 3 mps 751 mmHg 65%
    22:00 +7°C° 0 mm 4 mps 751 mmHg 62%
    23:00 +6°C° 0 mm 4 mps 752 mmHg 59%

    29 April, Monday

    Time Temperature Precipitation Wind Pressure Humidity
    00:00 +5°C° 0 mm 4 mps 752 mmHg 60%
    01:00 +4°C° 0 mm 4 mps 752 mmHg 61%
    02:00 +4°C° 0 mm 4 mps 753 mmHg 62%
    03:00 +3°C° 0 mm 4 mps 753 mmHg 63%
    04:00 +3°C° 0 mm 4 mps 753 mmHg 64%
    05:00 +1°C° 0 mm 4 mps 753 mmHg 65%
    06:00 +3°C° 0 mm 4 mps 754 mmHg 62%
    07:00 +4°C° 0 mm 4 mps 754 mmHg 59%
    08:00 +5°C° 0 mm 4 mps 754 mmHg 56%
    09:00 +7°C° 0 mm 4 mps 754 mmHg 52%
    10:00 +8°C° 0 mm 5 mps 754 mmHg 48%
    11:00 +9°C° 0 mm 5 mps 754 mmHg 44%
    12:00 +10°C° 0 mm 5 mps 754 mmHg 43%
    13:00 +11°C° 0 mm 4 mps 754 mmHg 41%
    14:00 +12°C° 0 mm 4 mps 753 mmHg 40%
    15:00 +12°C° 0 mm 4 mps 753 mmHg 40%
    16:00 +12°C° 0 mm 4 mps 753 mmHg 41%
    17:00 +12°C° 0 mm 4 mps 753 mmHg 41%
    18:00 +10°C° 0 mm 3 mps 753 mmHg 47%
    19:00 +8°C° 0 mm 3 mps 753 mmHg 53%
    20:00 +7°C° 0 mm 2 mps 753 mmHg 58%
    21:00 +6°C° 0 mm 2 mps 753 mmHg 60%
    22:00 +5°C° 0 mm 2 mps 754 mmHg 62%
    23:00 +5°C° 0 mm 2 mps 754 mmHg 64%

    30 April, Tuesday

    Time Temperature Precipitation Wind Pressure Humidity
    00:00 +4°C° 0 mm 2 mps 754 mmHg 65%
    01:00 +3°C° 0 mm 2 mps 754 mmHg 67%
    02:00 +3°C° 0 mm 2 mps 754 mmHg 68%
    03:00 +3°C° 0 mm 2 mps 754 mmHg 69%
    04:00 +2°C° 0 mm 2 mps 754 mmHg 69%
    05:00 +2°C° 0 mm 2 mps 755 mmHg 70%
    06:00 +4°C° 0 mm 2 mps 755 mmHg 64%
    07:00 +6°C° 0 mm 2 mps 755 mmHg 58%
    08:00 +8°C° 0 mm 3 mps 755 mmHg 52%
    09:00 +9°C° 0 mm 3 mps 755 mmHg 47%
    10:00 +10°C° 0 mm 3 mps 755 mmHg 42%
    11:00 +11°C° 0 mm 4 mps 755 mmHg 37%
    12:00 +12°C° 0 mm 3 mps 754 mmHg 36%
    13:00 +12°C° 0 mm 3 mps 754 mmHg 34%
    14:00 +13°C° 0 mm 3 mps 754 mmHg 33%
    15:00 +13°C° 0 mm 3 mps 753 mmHg 34%
    16:00 +14°C° 0 mm 2 mps 753 mmHg 35%
    17:00 +14°C° 0 mm 2 mps 752 mmHg 36%
    18:00 +12°C° 0 mm 2 mps 752 mmHg 41%
    19:00 +9°C° 0 mm 2 mps 752 mmHg 47%
    20:00 +8°C° 0 mm 1 mps 752 mmHg 53%
    21:00 +7°C° 0 mm 1 mps 752 mmHg 55%
    22:00 +7°C° 0 mm 1 mps 752 mmHg 56%
    23:00 +6°C° 0 mm 1 mps 752 mmHg 58%
    Show more